Regional Weather Roundup
Issued by NWS

Home | Current Version | Previous Version | Text Only | Print | Product List | Glossary Off
Versions: 1 2 3 4 5 6 7 8 9 10 11 12 13 14 15 16 17 18 19 20 21 22 23 24 25 26 27 28 29 30 31 32 33 34 35 36 37 38 39 40 41 42 43 44 45 46 47 48 49 50

000
ASUS45 KABQ 240910
RWRNM
WEATHER ROUNDUP FOR NEW MEXICO
NATIONAL WEATHER SERVICE ALBUQUERQUE NM
300 AM MDT THU APR 24 2014

NOTE: "FAIR" MEANS FEW OR NO CLOUDS BELOW 12,000 FEET AGL WITH NO
       SIGNIFICANT WEATHER OR OBSTRUCTIONS TO VISION.

      THIS PRODUCT IS RELEASED AS TWO VERSIONS.  ONE VERSION NEAR
      THE TOP OF THE HOUR CONTAINING PRELIMINARY DATA FROM ALBUQUERQUE
      AND OTHER STATIONS.  A FINAL VERSION WITH ADDITIONAL DATA IS
      ISSUED ABOUT 10 MINUTES AFTER THE HOUR.

NMZ501-503-504-510>518-241000-
NORTHWEST PLATEAU/NORTHCENTRAL MOUNTAINS

CITY           SKY/WX    TMP DP  RH WIND       PRES   REMARKS
FARMINGTON     CLEAR     37  12  35 W6        30.04R WCI  32
LOS ALAMOS     CLEAR     43   6  21 W7        30.04R
SANTA FE       CLEAR     38   9  30 N10       30.01R WCI  31
TAOS           CLEAR     30  12  47 NW10      30.05R WCI  21
ANGEL FIRE     FAIR      33  13  43 CALM      30.03R

$$
NMZ402-403-502-505>509-241000-
WESTCENTRAL MOUNTAINS/SOUTHWEST MOUNTAINS

CITY           SKY/WX    TMP DP  RH WIND       PRES   REMARKS
GALLUP         CLEAR     29   7  39 CALM      30.08S
GRANTS         CLEAR     32   8  37 N8        30.09R WCI  25
SILVER CITY    CLEAR     46  10  23 N12       30.05S

$$
NMZ407-409-411-412-241000-
SOUTHERN DESERTS

CITY           SKY/WX    TMP DP  RH WIND       PRES   REMARKS
LORDSBURG      FAIR      48  16  27 NW5       29.99S
DEMING         CLEAR     53  12  19 NW10      29.97S
LAS CRUCES     CLEAR     57   7  13 NW10      29.97F
HOLLOMAN AFB   CLEAR     50  15  24 NE3       29.94R
ALAMOGORDO     CLEAR     55  14  19 NE10      29.94S
T OR C         CLEAR     51  12  21 W7        29.98R

$$
NMZ519>523-241000-
CENTRAL VALLEYS/CENTRAL HIGHLANDS

CITY           SKY/WX    TMP DP  RH WIND       PRES   REMARKS
ALBUQUERQUE    CLEAR     51  10  19 N7        30.03R
DOUBLE EAGLE   CLEAR     41  11  28 N3        30.03R
MORIARTY ARPT  FAIR      41  10  28 NW20      30.01S
CLINES CORNERS CLEAR     41  10  28 NW17      29.98R
BELEN          FAIR      45  13  27 NE6       30.02R
SOCORRO        FAIR      52  12  20 N7        30.00R

$$
NMZ524>526-539-540-241000-
SOUTHCENTRAL MOUNTAINS

CITY           SKY/WX    TMP DP  RH WIND       PRES   REMARKS
RUIDOSO        CLEAR     50   7  17 NW7G17    30.04R

$$
NMZ527>531-241000-
NORTHEAST HIGHLANDS/NORTHEAST PLAINS

CITY           SKY/WX    TMP DP  RH WIND       PRES   REMARKS
LAS VEGAS      CLEAR     37  12  35 N9        29.97R WCI  30
RATON          PTCLDY    40  33  76 NE13      29.95R WCI  32
CLAYTON        CLOUDY    45  32  60 N26G40    29.91R HAZE

$$
NMZ532>537-241000-
EASTCENTRAL PLAINS

CITY           SKY/WX    TMP DP  RH WIND       PRES   REMARKS
TUCUMCARI      MOCLDY    56  34  43 N30G37    29.86R HAZE
CANNON AFB     CLEAR     56  18  22 W14       29.85R
CLOVIS AIRPORT CLEAR     55  18  22 W17       29.87R

$$
NMZ028-029-538-241000-
SOUTHEAST PLAINS

CITY           SKY/WX    TMP DP  RH WIND       PRES   REMARKS
ROSWELL        CLEAR     59  14  17 W7        29.86R
ARTESIA        CLEAR     54  18  24 NW8       29.87R
CARLSBAD       CLEAR     58  27  30 NW12      29.85R
HOBBS          CLEAR     55  23  28 NW9       29.86R


$$



USA.gov is the U.S. government's official web portal to all federal, state and local government web resources and services.